Terminal Aerodrome Forecast
Issued by NWS

Home | Current Version | Previous Version | Graphics & Text | Print | Product List | Glossary On
Versions: 1 2 3 4 5 6 7 8 9 10 11 12 13 14 15 16 17 18 19 20 21 22 23 24
000
FTUS43 KLSX 220300 AAB
TAFSUS
TAF AMD
KSUS 220331Z 2204/2224 VRB04KT 6SM BR SCT100
      TEMPO 2204/2207 2SM BR
     FM220700 35012KT P6SM SKC=

USA.gov is the U.S. government's official web portal to all federal, state and local government web resources and services.